Regional Weather Roundup
Issued by NWS

Home | Current Version | Previous Version | Graphics & Text | Print | Product List | Glossary On
Versions: 1 2 3 4 5 6 7 8 9 10 11 12 13 14 15 16 17 18 19 20 21 22 23 24 25 26 27 28 29 30 31 32 33 34 35 36 37 38 39 40 41 42 43 44 45 46 47 48 49 50
000
ASUS43 KFSD 020802
RWRSD

WEATHER ROUNDUP FOR SOUTH DAKOTA
NATIONAL WEATHER SERVICE SIOUX FALLS SD
300 AM CDT THU OCT 02 2014

NOTE: "FAIR" INDICATES FEW OR NO CLOUDS BELOW 12,000 FEET WITH NO
SIGNIFICANT WEATHER AND/OR OBSTRUCTIONS TO VISIBILITY.


SDZ001>005-009-010-012>017-020900-
NORTHWEST AND NORTH CENTRAL SOUTH DAKOTA

CITY           SKY/WX    TMP DP  RH WIND       PRES   REMARKS
BUFFALO          N/A     37  33  85 W7        29.89R
FAITH            N/A     45  40  82 W7        29.94S
MOBRIDGE       CLOUDY    52  48  86 NW6       29.89R
$$

SDZ012>016-024>037-041>051-057-063-072>074-020900-
SOUTHWEST AND SOUTH CENTRAL SOUTH DAKOTA

CITY           SKY/WX    TMP DP  RH WIND       PRES   REMARKS
RAPID CTY ARPT CLEAR     40  36  86 CALM      29.99S
PIERRE         CLOUDY    52  49  89 W5        29.91F
CUSTER         CLEAR     37  33  85 NW5       30.03R
ELLSWORTH AFB  CLEAR     39  36  87 W8        29.98S
PHILIP         CLOUDY    48  45  89 W6        29.97R
PINE RIDGE     PTCLDY    44  44 100 CALM      30.01R
WINNER         LGT RAIN  52  49  89 W6        29.95S
$$

SDZ004>011-016>023-039-040-020900-
NORTHEAST SOUTH DAKOTA

CITY           SKY/WX    TMP DP  RH WIND       PRES   REMARKS
ABERDEEN       CLOUDY    48  45  89 W3        29.88R
WATERTOWN      MOCLDY    50  47  89 NW7       29.86F
SISSETON         N/A     50  48  93 NW8       29.84S
$$

SDZ017-020-022-023-036>040-048>070-020900-
SOUTHEAST SOUTH DAKOTA

CITY           SKY/WX    TMP DP  RH WIND       PRES   REMARKS
SIOUX FALLS    PTCLDY    52  48  86 N7        29.85R
HURON          CLOUDY    49  47  93 NW6       29.90R
CHAMBERLAIN    LGT RAIN  52  49  89 NW5       29.93S
MITCHELL       CLOUDY    53  48  83 NW8       29.90R
YANKTON        CLOUDY    55  50  82 NW10      29.85R
$$

ABBREVIATIONS USED IN REMARKS
   TC - TEMPERATURE IN CELSIUS
  WCI - WIND CHILL INDEX
   HX - HEAT INDEX
  VSB - VISIBILITY



USA.gov is the U.S. government's official web portal to all federal, state and local government web resources and services.